Location: Unspecified
(0.0000°N, 0.0000°E)
Time: 08:12:17
(UTC+02:00)

Amateur Radio Satellites - All Passes

Search period start: 24 April 2014 07:42
Search period end: 25 April 2014 07:42
Location: Unspecified, 0.0000°N, 0.0000°E

Satellite Date Start Highest point End Downlink Frequencies (MHz)
Time Altitude Azimuth
MaSat-1 24 Apr 08:14:01 08:18:02 45° 75° (ENE) 08:22:49 437.345 MHz
JAS-2 24 Apr 08:14:55 08:20:58 45° 104° (ESE) 08:27:45 435.800 - 435.900 CW/SSB, 435.910 FM
SO-67 24 Apr 08:46:21 08:49:46 57° 101° (E) 08:53:12 435.3500 MHz FM
STRAND 1 24 Apr 08:50:10 08:54:59 41° 257° (WSW) 08:59:46 ?
Saudisat 1A 24 Apr 09:38:27 09:42:53 79° 112° (ESE) 09:47:20 436.775 MHz
HO-68 24 Apr 09:58:23 10:04:14 27° 105° (ESE) 10:10:05 435.675 MHz FM
JAS-2 24 Apr 10:01:50 10:05:53 18° 280° (W) 10:10:14 435.800 - 435.900 CW/SSB, 435.910 FM
PCSat 24 Apr 10:46:33 10:50:55 25° 70° (ENE) 10:55:17 145.825 MHz
Oscar 11 24 Apr 10:54:39 10:58:23 28° 102° (ESE) 11:02:08 145.825 FM, Beacon 2401.500 USB
ISS 24 Apr 11:24:21 11:26:28 16° 126° (SE) 11:28:34 145.800 FM
Sapphire 24 Apr 11:44:20 11:49:42 76° 251° (WSW) 11:55:05 437.095 MHz 1200 baud AX-25 AFSK
HO-68 24 Apr 11:45:22 11:51:36 33° 285° (WNW) 11:57:52 435.675 MHz FM
PCSat 24 Apr 12:30:03 12:34:04 21° 250° (WSW) 12:38:05 145.825 MHz
Oscar 11 24 Apr 12:32:44 12:34:19 12° 282° (WNW) 12:35:55 145.825 FM, Beacon 2401.500 USB
FUNcube-1 24 Apr 12:35:02 12:39:16 44° 281° (WNW) 12:43:38 145.950 - 145.970 MHz USB
ISS 24 Apr 13:00:53 13:02:58 16° 306° (NW) 13:05:03 145.800 FM
SO-50 24 Apr 13:22:03 13:25:23 20° 113° (ESE) 13:28:41 436.795 FM
KITSAT 1 24 Apr 13:51:35 13:59:37 77° 70° (ENE) 14:07:39 435.175 FM
Oscar 16 24 Apr 14:13:16 14:15:47 14° 77° (ENE) 14:18:17 437.025 USB, Beacon 2401.1428
PANSAT 24 Apr 14:36:11 14:39:50 40° 30° (NNE) 14:43:28 not established
Uribyol 2 24 Apr 14:56:40 15:00:30 21° 77° (ENE) 15:04:19 436.500 FM
SO-50 24 Apr 15:02:34 15:05:41 18° 292° (WNW) 15:08:47 436.795 FM
AO-Echo 24 Apr 15:03:07 15:06:45 19° 78° (ENE) 15:10:20 ?
UOSAT-12 24 Apr 15:16:44 15:19:07 14° 112° (ESE) 15:21:30 437.025 FM, 437.400 FM
OPAL 24 Apr 15:21:18 15:23:23 12° 105° (ESE) 15:25:28 ?
AO-27 24 Apr 15:38:13 15:43:24 68° 77° (ENE) 15:48:33 436.795 MHz FM
Oscar 19 24 Apr 15:40:42 15:45:38 50° 258° (WSW) 15:50:35 437.125 CW, 437.150 USB
ITAMSAT 1 24 Apr 15:47:29 15:52:43 86° 77° (ENE) 15:57:53 435.822 SSB
Oscar 16 24 Apr 15:50:14 15:54:51 35° 257° (WSW) 15:59:29 437.025 USB, Beacon 2401.1428
KITSAT 1 24 Apr 15:52:36 15:54:48 11° 248° (WSW) 15:57:01 435.175 FM
Gurwin Techsat 1B 24 Apr 16:00:49 16:05:16 28° 77° (ENE) 16:09:42 435.225 FM
PANSAT 24 Apr 16:16:43 16:19:59 26° 209° (SSW) 16:23:15 not established
RS-15 24 Apr 16:25:09 16:32:16 19° 68° (ENE) 16:39:29 29.354 - 29.394 USB, Beacon 29.352 USB
Uribyol 2 24 Apr 16:35:38 16:39:42 24° 257° (WSW) 16:43:45 436.500 FM
AO-Echo 24 Apr 16:40:45 16:45:14 28° 257° (WSW) 16:49:41 ?
TMSAT-1 24 Apr 16:44:48 16:50:02 61° 78° (ENE) 16:55:14 436.925 FM
UOSAT-12 24 Apr 16:55:19 16:58:59 25° 292° (WNW) 17:02:41 437.025 FM, 437.400 FM
OPAL 24 Apr 16:57:11 17:01:59 40° 284° (WNW) 17:06:47 ?
JAS-1B 24 Apr 17:03:35 17:12:33 56° 78° (ENE) 17:20:08 435.800 - 435.900 CW/SSB
Uosat F 24 Apr 17:04:15 17:08:29 27° 77° (ENE) 17:12:41 435.120 FM
AO-7 24 Apr 17:33:21 17:41:05 44° 74° (ENE) 17:48:45 29.400 - 29.500 MHz
Gurwin Techsat 1B 24 Apr 17:41:18 17:44:57 19° 257° (WSW) 17:48:36 435.225 FM
RS-15 24 Apr 18:33:02 18:44:12 70° 249° (WSW) 18:55:58 29.354 - 29.394 USB, Beacon 29.352 USB
Uosat F 24 Apr 18:43:45 18:47:00 17° 257° (WSW) 18:50:14 435.120 FM
JAS-1B 24 Apr 18:56:02 19:02:19 21° 252° (WSW) 19:08:04 435.800 - 435.900 CW/SSB
AO-7 24 Apr 19:27:07 19:33:29 25° 253° (WSW) 19:39:51 29.400 - 29.500 MHz
Hamsat 24 Apr 19:34:28 19:38:27 43° 79° (ENE) 19:42:25 145.90 MHz
STRAND 1 24 Apr 19:44:20 19:48:43 29° 103° (ESE) 19:53:08 ?
JAS-2 24 Apr 19:50:49 19:55:38 23° 80° (E) 20:00:04 435.800 - 435.900 CW/SSB, 435.910 FM
MaSat-1 24 Apr 20:18:13 20:22:12 59° 108° (ESE) 20:25:29 437.345 MHz
SO-67 24 Apr 20:32:12 20:35:19 31° 79° (E) 20:38:25 435.3500 MHz FM
STRAND 1 24 Apr 21:24:32 21:27:39 16° 283° (WNW) 21:30:46 ?
JAS-2 24 Apr 21:34:56 21:40:29 29° 255° (WSW) 21:45:31 435.800 - 435.900 CW/SSB, 435.910 FM
Saudisat 1A 24 Apr 21:44:54 21:49:11 64° 248° (WSW) 21:53:29 436.775 MHz
HO-68 24 Apr 21:50:35 21:55:53 23° 75° (ENE) 22:01:09 435.675 MHz FM
Sapphire 24 Apr 22:38:50 22:42:59 22° 110° (ESE) 22:47:06 437.095 MHz 1200 baud AX-25 AFSK
AO-40 24 Apr 22:54:11 22:59:58 48° 6° (N) 23:07:57 Beacon 2401.320
ISS 24 Apr 23:01:18 23:02:02 11° 54° (NE) 23:02:46 145.800 FM
Oscar 11 24 Apr 23:03:45 23:07:45 37° 78° (ENE) 23:11:43 145.825 FM, Beacon 2401.500 USB
FUNcube-1 24 Apr 23:13:45 23:14:24 10° 79° (ENE) 23:15:03 145.950 - 145.970 MHz USB
PCSat 24 Apr 23:21:53 23:27:17 80° 109° (ESE) 23:32:40 145.825 MHz
HO-68 24 Apr 23:36:44 23:43:15 39° 255° (WSW) 23:49:46 435.675 MHz FM
Sapphire 25 Apr 00:21:52 00:26:07 24° 290° (WNW) 00:30:23 437.095 MHz 1200 baud AX-25 AFSK
ISS 25 Apr 00:35:48 00:38:32 24° 234° (SW) 00:41:17 145.800 FM
FUNcube-1 25 Apr 00:46:51 00:50:36 29° 258° (WSW) 00:54:15 145.950 - 145.970 MHz USB
SO-50 25 Apr 01:34:14 01:38:40 39° 68° (ENE) 01:43:08 436.795 FM
KITSAT 1 25 Apr 01:59:31 02:07:38 84° 290° (WNW) 02:15:44 435.175 FM
PANSAT 25 Apr 02:23:54 02:27:36 43° 150° (SSE) 02:31:17 not established
Oscar 19 25 Apr 02:36:09 02:40:22 26° 103° (ESE) 02:44:35 437.125 CW, 437.150 USB
AO-27 25 Apr 02:38:15 02:39:22 11° 103° (ESE) 02:40:29 436.795 MHz FM
Oscar 16 25 Apr 02:44:57 02:49:40 36° 103° (ESE) 02:54:24 437.025 USB, Beacon 2401.1428
ITAMSAT 1 25 Apr 02:45:55 02:48:31 14° 103° (ESE) 02:51:08 435.822 SSB
SO-50 25 Apr 03:17:55 03:19:02 11° 247° (WSW) 03:20:09 436.795 FM
UOSAT-12 25 Apr 03:25:43 03:29:34 26° 68° (ENE) 03:33:22 437.025 FM, 437.400 FM
Uribyol 2 25 Apr 03:30:17 03:35:22 56° 103° (ESE) 03:40:29 436.500 FM
AO-Echo 25 Apr 03:31:25 03:35:45 38° 102° (ESE) 03:40:10 ?
TMSAT-1 25 Apr 03:47:23 03:48:32 11° 103° (ESE) 03:49:41 436.925 FM
OPAL 25 Apr 03:50:46 03:55:03 29° 76° (ENE) 03:59:21 ?
PANSAT 25 Apr 04:04:32 04:07:45 25° 331° (NNW) 04:10:59 not established
RS-15 25 Apr 04:08:54 04:15:07 16° 114° (ESE) 04:21:08 29.354 - 29.394 USB, Beacon 29.352 USB
AO-27 25 Apr 04:13:40 04:18:34 44° 283° (WNW) 04:23:31 436.795 MHz FM
Oscar 19 25 Apr 04:15:48 04:19:26 19° 283° (WNW) 04:23:04 437.125 CW, 437.150 USB
Oscar 10/S400 25 Apr 04:16:49 04:35:54 63° 338° (NNW) 05:38:57 145.825 - 145.975 CW/USB, Beacon 145.810 USB
ITAMSAT 1 25 Apr 04:23:02 04:27:43 35° 283° (WNW) 04:32:26 435.822 SSB
Oscar 16 25 Apr 04:26:17 04:28:44 14° 283° (WNW) 04:31:12 437.025 USB, Beacon 2401.1428
Gurwin Techsat 1B 25 Apr 04:38:28 04:43:46 80° 103° (ESE) 04:49:05 435.225 FM
UOSAT-12 25 Apr 05:06:44 05:09:27 15° 248° (WSW) 05:12:09 437.025 FM, 437.400 FM
JAS-1B 25 Apr 05:12:23 05:18:35 57° 105° (ESE) 05:25:57 435.800 - 435.900 CW/SSB
TMSAT-1 25 Apr 05:23:07 05:28:09 46° 282° (WNW) 05:33:13 436.925 FM
OPAL 25 Apr 05:30:42 05:33:40 16° 256° (WSW) 05:36:39 ?
Uosat F 25 Apr 05:33:14 05:38:10 65° 103° (ESE) 05:43:08 435.120 FM
AO-7 25 Apr 05:59:04 06:07:21 70° 106° (ESE) 06:15:40 29.400 - 29.500 MHz
RS-15 25 Apr 06:15:37 06:27:30 80° 290° (WNW) 06:38:49 29.354 - 29.394 USB, Beacon 29.352 USB
JAS-1B 25 Apr 07:07:10 07:09:19 12° 280° (W) 07:11:34 435.800 - 435.900 CW/SSB
JAS-2 25 Apr 07:23:46 07:26:32 13° 107° (ESE) 07:29:23 435.800 - 435.900 CW/SSB, 435.910 FM
